Regional Weather Roundup
Issued by NWS

Home | Current Version | Previous Version | Text Only | Print | Product List | Glossary On
Versions: 1 2 3 4 5 6 7 8 9 10 11 12 13 14 15 16 17 18 19 20 21 22 23 24 25 26 27 28 29 30 31 32 33 34 35 36 37 38 39 40 41 42 43 44 45 46 47 48 49 50
000
ASUS43 KFSD 262102
RWRSD

WEATHER ROUNDUP FOR SOUTH DAKOTA
NATIONAL WEATHER SERVICE SIOUX FALLS SD
400 PM CDT FRI MAY 26 2017

NOTE: "FAIR" INDICATES FEW OR NO CLOUDS BELOW 12,000 FEET WITH NO
SIGNIFICANT WEATHER AND/OR OBSTRUCTIONS TO VISIBILITY.


SDZ001>005-009-010-012>017-262200-
NORTHWEST AND NORTH CENTRAL SOUTH DAKOTA

CITY           SKY/WX    TMP DP  RH WIND       PRES   REMARKS
BUFFALO          N/A     65  36  34 W20       29.81S
FAITH            N/A     67  36  31 NW17G25   29.85S
MOBRIDGE       MOSUNNY   69  38  32 NW17      29.78F
$$

SDZ012>016-024>037-041>051-057-063-072>074-262200-
SOUTHWEST AND SOUTH CENTRAL SOUTH DAKOTA

CITY           SKY/WX    TMP DP  RH WIND       PRES   REMARKS
RAPID CTY ARPT CLOUDY    63  36  36 N6        29.90R
PIERRE         SUNNY     71  36  27 NW16G25   29.83S
CUSTER         CLOUDY    48  36  63 S5        29.94S
ELLSWORTH AFB  CLOUDY    63  35  35 CALM      29.89S
PHILIP         MOSUNNY   70  36  28 W12       29.86S
PINE RIDGE     MOSUNNY   67  41  38 N5        29.88F
WINNER         FAIR      73  42  32 NW10      29.86F
$$

SDZ004>011-016>023-039-040-262200-
NORTHEAST SOUTH DAKOTA

CITY           SKY/WX    TMP DP  RH WIND       PRES   REMARKS
ABERDEEN       SUNNY     71  40  32 NW16G24   29.79S
WATERTOWN      SUNNY     70  43  37 W18G25    29.78S
BROOKINGS      SUNNY     70  45  40 W14G21    29.81
SISSETON         N/A     71  44  37 NW16G25   29.76R
$$

SDZ017-020-022-023-036>040-048>070-262200-
SOUTHEAST SOUTH DAKOTA

CITY           SKY/WX    TMP DP  RH WIND       PRES   REMARKS
SIOUX FALLS    MOSUNNY   73  47  39 NW13      29.82S
HURON          SUNNY     73  41  31 W17G31    29.80S
CHAMBERLAIN    SUNNY     74  42  31 NW17G23   29.84F
MITCHELL       SUNNY     76  39  26 NW18G24   29.83S
YANKTON        SUNNY     72  45  37 W13       29.84F
$$

ABBREVIATIONS USED IN REMARKS
   TC - TEMPERATURE IN CELSIUS
  WCI - WIND CHILL INDEX
   HX - HEAT INDEX
  VSB - VISIBILITY





USA.gov is the U.S. government's official web portal to all federal, state and local government web resources and services.